TimeEST,TemperatureF,Dew PointF,Humidity,Sea Level PressureIn,VisibilityMPH,Wind Direction,Wind SpeedMPH,Gust SpeedMPH,PrecipitationIn,Events,Conditions,WindDirDegrees,DateUTC
12:53 AM,46.9,35.1,63,30.14,10.0,NNW,15.0,-,N/A,,Clear,330,2013-03-04 05:53:00
1:53 AM,44.1,33.1,65,30.14,10.0,NNW,12.7,-,N/A,,Clear,330,2013-03-04 06:53:00
2:53 AM,44.1,33.1,65,30.12,10.0,NNW,12.7,-,N/A,,Clear,330,2013-03-04 07:53:00
3:53 AM,43.0,32.0,65,30.12,10.0,NNW,12.7,-,N/A,,Clear,340,2013-03-04 08:53:00
4:53 AM,41.0,30.9,67,30.15,10.0,NW,5.8,-,N/A,,Clear,320,2013-03-04 09:53:00
5:53 AM,39.0,30.9,73,30.16,10.0,NW,5.8,-,N/A,,Clear,320,2013-03-04 10:53:00
6:53 AM,39.9,33.1,77,30.18,10.0,WNW,4.6,-,N/A,,Partly Cloudy,290,2013-03-04 11:53:00
7:53 AM,46.9,32.0,56,30.20,10.0,NNW,11.5,-,N/A,,Partly Cloudy,330,2013-03-04 12:53:00
8:53 AM,51.1,30.0,44,30.21,10.0,NNW,13.8,-,N/A,,Partly Cloudy,340,2013-03-04 13:53:00
9:53 AM,55.0,30.0,38,30.21,10.0,NNW,18.4,24.2,N/A,,Clear,330,2013-03-04 14:53:00
10:53 AM,57.9,30.0,35,30.21,10.0,NNW,12.7,-,N/A,,Partly Cloudy,330,2013-03-04 15:53:00
11:53 AM,60.1,26.1,27,30.19,10.0,North,6.9,-,N/A,,Clear,350,2013-03-04 16:53:00
12:53 PM,64.0,24.1,22,30.16,10.0,Variable,5.8,16.1,N/A,,Clear,0,2013-03-04 17:53:00
1:53 PM,64.9,34.0,32,30.14,10.0,NNE,10.4,-,N/A,,Clear,20,2013-03-04 18:53:00
2:53 PM,64.9,33.1,31,30.14,10.0,NNE,9.2,-,N/A,,Clear,30,2013-03-04 19:53:00
3:53 PM,64.9,30.9,28,30.14,10.0,NE,13.8,-,N/A,,Clear,50,2013-03-04 20:53:00
4:53 PM,63.0,32.0,31,30.14,10.0,NNE,11.5,-,N/A,,Partly Cloudy,30,2013-03-04 21:53:00
5:53 PM,62.1,30.0,30,30.15,10.0,North,10.4,-,N/A,,Partly Cloudy,10,2013-03-04 22:53:00
6:53 PM,59.0,37.9,46,30.15,10.0,North,6.9,-,N/A,,Clear,10,2013-03-04 23:53:00
7:53 PM,55.0,41.0,59,30.16,10.0,Calm,Calm,-,N/A,,Clear,0,2013-03-05 00:53:00
8:53 PM,52.0,41.0,66,30.18,10.0,WNW,3.5,-,N/A,,Clear,300,2013-03-05 01:53:00
9:53 PM,53.1,44.1,71,30.18,10.0,Calm,Calm,-,N/A,,Clear,0,2013-03-05 02:53:00
10:53 PM,52.0,45.0,77,30.18,10.0,Calm,Calm,-,N/A,,Clear,0,2013-03-05 03:53:00
11:53 PM,50.0,44.1,80,30.18,10.0,Calm,Calm,-,N/A,,Clear,0,2013-03-05 04:53:00